Weather History for Norwood, MA

Change the Weather History Date:

Wednesday, December 5, 2012

  Actual Average Record
Temperature  
Mean Temperature 48 °F -  
Max Temperature 59 °F 42 °F 68 °F (2001)
Min Temperature 35 °F 24 °F 10 °F (2000)
Degree Days  
Heating Degree Days 18    
Moisture  
Dew Point 39 °F    
Average Humidity 65    
Maximum Humidity 90    
Minimum Humidity 43    
Precipitation  
Precipitation 0.01 in - - ()
Sea Level Pressure  
Sea Level Pressure 29.94 in    
Wind  
Wind Speed 11 mph (West)    
Max Wind Speed 18 mph    
Max Gust Speed 31 mph    
Visibility 10 miles    
Events Rain    
Averages and records for this station are not official NWS values.
T = Trace of Precipitation, MM = Missing Value Source: NWS Daily Summary

Daily Weather History Graph

Daily Weather History Graph

Search for Another Location

Airport:

Trip Planner

Search our weather history database for the weather conditions in past years. The results will help you decide how hot, cold, wet, or windy it might be!

Date:

Astronomy

Dec. 05, 2012 Rise Set
Actual Time 6:58 AM EST 4:12 PM EST
Civil Twilight 6:26 AM EST 4:44 PM EST
Nautical Twilight 5:51 AM EST 5:19 PM EST
Astronomical Twilight 5:17 AM EST 5:53 PM EST
Moon 11:04 PM EST (12/5) 11:15 AM EST (12/5)
Length of Visible Light 10h 17m
Length of Day
9h 14m
Waning Gibbous, 60% of the Moon is Illuminated
Dec 5
Waning Gibbous
Dec 6
Last Quarter
Dec 13
New
Dec 20
First Quarter
Dec 28
Full

Hourly Weather History & Observations

Time (EST) Temp. Windchill Dew Point Humidity Pressure Visibility Wind Dir Wind Speed Gust Speed Precip Events Conditions
12:04 AM 59.0 °F - 53.6 °F 82% 29.98 in 10.0 mi SSW 10.4 mph 18.4 mph N/A   Overcast
12:53 AM 59.0 °F - 54.0 °F 83% 29.95 in 10.0 mi South 9.2 mph - N/A   Overcast
1:37 AM 57.2 °F - 53.6 °F 88% 29.93 in 9.0 mi South 10.4 mph - N/A   Scattered Clouds
1:53 AM 57.0 °F - 54.0 °F 89% 29.93 in 10.0 mi South 8.1 mph - N/A   Scattered Clouds
2:53 AM 57.0 °F - 54.0 °F 89% 29.89 in 10.0 mi SSW 8.1 mph - N/A   Partly Cloudy
3:53 AM 55.9 °F - 53.1 °F 90% 29.86 in 9.0 mi SSW 10.4 mph - N/A   Scattered Clouds
4:53 AM 57.0 °F - 53.1 °F 87% 29.84 in 10.0 mi SW 8.1 mph 16.1 mph N/A   Overcast
5:25 AM 57.2 °F - 53.6 °F 88% 29.85 in 5.0 mi SW 9.2 mph - 0.01 in Rain Light Rain
5:53 AM 57.0 °F - 53.1 °F 87% 29.87 in 10.0 mi WSW 11.5 mph - 0.01 in   Overcast
6:13 AM 57.2 °F - 51.8 °F 82% 29.86 in 10.0 mi WSW 8.1 mph - N/A   Overcast
6:53 AM 55.9 °F - 51.1 °F 84% 29.88 in 10.0 mi West 9.2 mph - N/A   Overcast
7:53 AM 54.0 °F - 48.0 °F 80% 29.89 in 10.0 mi West 9.2 mph - 0.00 in   Overcast
9:53 AM 54.0 °F - 37.9 °F 55% 29.93 in 10.0 mi WNW 18.4 mph 25.3 mph N/A   Overcast
10:53 AM 55.0 °F - 36.0 °F 49% 29.91 in 10.0 mi WNW 9.2 mph 19.6 mph N/A   Partly Cloudy
11:53 AM 55.9 °F - 35.1 °F 45% 29.90 in 10.0 mi WNW 15.0 mph 24.2 mph N/A   Partly Cloudy
12:53 PM 55.0 °F - 33.1 °F 43% 29.90 in 10.0 mi NW 12.7 mph 24.2 mph N/A   Mostly Cloudy
1:53 PM 52.0 °F - 33.1 °F 49% 29.90 in 10.0 mi NW 16.1 mph 25.3 mph N/A   Mostly Cloudy
2:53 PM 51.1 °F - 30.0 °F 44% 29.91 in 10.0 mi WNW 17.3 mph 27.6 mph N/A   Partly Cloudy
3:53 PM 48.9 °F - 30.9 °F 50% 29.94 in 10.0 mi WNW 16.1 mph 21.9 mph N/A   Partly Cloudy
4:53 PM 44.1 °F 36.5 °F 26.1 °F 49% 29.97 in 10.0 mi WNW 17.3 mph 26.5 mph N/A   Clear
5:53 PM 42.1 °F 34.2 °F 25.0 °F 51% 30.01 in 10.0 mi WNW 16.1 mph 23.0 mph N/A   Scattered Clouds
7:53 PM 41.0 °F 34.7 °F 19.9 °F 43% 30.05 in 10.0 mi NW 10.4 mph 25.3 mph N/A   Overcast
8:53 PM 39.0 °F 31.4 °F 21.0 °F 49% 30.07 in 10.0 mi NNW 12.7 mph 24.2 mph N/A   Overcast
9:53 PM 37.9 °F 28.9 °F 19.0 °F 47% 30.09 in 10.0 mi NNW 16.1 mph 26.5 mph N/A   Overcast
10:53 PM 36.0 °F 26.3 °F 17.1 °F 46% 30.11 in 10.0 mi NW 16.1 mph 31.1 mph N/A   Mostly Cloudy
11:53 PM 35.1 °F 27.9 °F 16.0 °F 46% 30.14 in 10.0 mi North 9.2 mph 18.4 mph N/A   Overcast